�N����,����,�~����,�C��,���x,�C��,����,���ϕ���,�ő�u�ԕ���,�ő厞����,���˗�,�I�_���x,�n�����x,�ő啗���N��,DTYPE
"20/09/28","00:10",0.0,17.2,90.4,1009.5,329.5,2.1,4.2,339.5,0.00,15.7,21.3,"00:03:28",1
"20/09/28","00:20",0.0,17.1,90.3,1009.3,329.2,1.5,3.4,331.5,0.00,15.5,21.3,"00:12:16",1
"20/09/28","00:30",0.0,17.2,90.4,1009.5,325.9,2.0,3.7,328.2,0.00,15.7,21.2,"00:28:56",1
"20/09/28","00:40",0.0,17.2,90.5,1009.5,332.4,2.2,3.9,333.3,0.00,15.7,21.3,"00:37:04",1
"20/09/28","00:50",0.0,17.2,90.4,1009.7,330.8,2.1,3.3,336.5,0.00,15.7,21.2,"00:45:04",1
"20/09/28","01:00",0.0,17.1,90.4,1009.7,325.7,2.0,3.5,335.7,0.00,15.6,21.2,"00:50:48",1
"20/09/28","01:10",0.0,17.1,90.5,1009.7,327.2,2.3,4.4,338.3,0.00,15.6,21.2,"01:05:12",1
"20/09/28","01:20",0.0,17.0,90.5,1009.5,333.4,2.0,3.6,339.5,0.00,15.5,21.1,"01:11:44",1
"20/09/28","01:30",0.0,16.9,90.7,1009.5,333.4,2.1,3.9,347.4,0.00,15.4,21.0,"01:29:20",1
"20/09/28","01:40",0.0,16.8,90.7,1009.0,336.9,1.6,3.3,339.9,0.00,15.3,21.0,"01:30:08",1
"20/09/28","01:50",0.0,16.7,90.9,1009.5,332.8,1.6,2.9,344.1,0.00,15.2,21.1,"01:42:08",1
"20/09/28","02:00",0.0,16.8,91.0,1009.5,332.6,1.6,2.7,340.3,0.00,15.4,20.9,"01:55:36",1
"20/09/28","02:10",0.0,17.1,91.0,1009.5,331.5,2.5,4.2,329.4,0.00,15.7,21.1,"02:04:08",1
"20/09/28","02:20",0.0,17.3,90.9,1009.5,324.7,2.2,3.5,336.1,0.00,15.8,20.7,"02:12:48",1
"20/09/28","02:30",0.0,17.3,90.7,1009.5,328.9,2.6,4.2,331.4,0.00,15.8,20.8,"02:27:20",1
"20/09/28","02:40",0.0,17.4,90.5,1009.3,326.0,2.2,3.7,335.0,0.00,15.9,20.9,"02:37:20",1
"20/09/28","02:50",0.0,17.5,90.3,1009.5,326.4,2.7,5.5,337.4,0.00,15.9,21.0,"02:40:40",1
"20/09/28","03:00",0.0,17.5,90.1,1009.5,326.4,2.0,3.6,334.9,0.00,15.9,20.9,"02:52:00",1
"20/09/28","03:10",0.0,17.5,89.9,1009.7,328.0,2.2,4.0,328.5,0.00,15.9,20.8,"03:05:36",1
"20/09/28","03:20",0.0,17.4,89.8,1009.7,331.8,1.2,1.9,301.3,0.00,15.7,20.7,"03:10:08",1
"20/09/28","03:30",0.0,17.2,89.7,1009.3,343.8,0.7,1.6,346.9,0.00,15.5,21.0,"03:25:20",1
"20/09/28","03:40",0.0,17.2,89.7,1009.5,338.9,0.8,1.7,339.1,0.00,15.5,20.8,"03:34:32",1
"20/09/28","03:50",0.0,17.1,89.8,1009.5,315.0,1.5,3.2,336.2,0.00,15.5,20.9,"03:43:52",1
"20/09/28","04:00",0.0,17.1,90.0,1009.5,329.4,1.6,2.5,340.9,0.00,15.5,20.9,"03:53:04",1
"20/09/28","04:10",0.0,17.3,90.0,1009.5,316.0,1.6,2.8,332.2,0.00,15.7,20.8,"04:01:12",1
"20/09/28","04:20",0.0,17.2,89.9,1009.5,280.7,0.5,1.7,321.7,0.00,15.6,20.7,"04:12:40",1
"20/09/28","04:30",0.0,16.7,90.0,1010.0,277.9,0.6,1.1,293.2,0.00,15.1,20.9,"04:28:08",1
"20/09/28","04:40",0.0,16.6,90.4,1010.0,324.4,1.2,2.1,341.7,0.00,15.1,20.9,"04:36:32",1
"20/09/28","04:50",0.0,16.4,90.6,1009.7,337.7,1.3,2.0,330.4,0.00,14.9,20.7,"04:44:40",1
"20/09/28","05:00",0.0,16.5,90.9,1009.7,324.6,1.3,2.4,339.5,0.00,15.0,20.7,"04:51:04",1
"20/09/28","05:10",0.0,16.6,91.2,1010.0,327.1,1.7,2.8,333.0,0.00,15.2,20.8,"05:09:44",1
"20/09/28","05:20",0.0,16.5,91.4,1009.3,332.4,1.6,3.1,341.0,0.00,15.1,20.7,"05:16:16",1
"20/09/28","05:30",0.0,16.5,91.7,1009.7,330.4,2.0,3.3,337.0,0.00,15.2,20.7,"05:24:32",1
"20/09/28","05:40",0.0,16.5,91.8,1009.7,333.2,1.8,4.0,319.8,0.00,15.2,20.7,"05:33:12",1
"20/09/28","05:50",0.0,16.4,91.8,1009.7,339.9,1.2,2.1,333.5,0.00,15.1,20.5,"05:42:40",1
"20/09/28","06:00",0.0,16.3,91.9,1010.2,332.8,1.5,2.4,330.4,0.00,15.0,20.7,"05:54:08",1
"20/09/28","06:10",0.0,16.4,92.0,1010.0,308.6,1.3,2.4,335.5,0.00,15.1,20.5,"06:00:24",1
"20/09/28","06:20",0.0,16.3,92.1,1010.0,344.1,1.1,2.2,6.2,0.00,15.1,20.5,"06:12:56",1
"20/09/28","06:30",0.0,16.4,92.3,1010.2,281.8,0.6,1.2,319.5,0.00,15.2,20.4,"06:27:28",1
"20/09/28","06:40",0.0,16.9,92.3,1010.4,274.6,0.3,0.9,315.5,0.01,15.7,20.8,"06:38:08",1
"20/09/28","06:50",0.0,17.1,92.2,1010.4,301.1,0.8,1.6,322.5,0.01,15.9,20.4,"06:48:24",1
"20/09/28","07:00",0.0,17.3,92.1,1010.4,281.9,1.0,2.0,340.2,0.01,16.0,20.4,"06:52:08",1
"20/09/28","07:10",0.0,17.8,92.3,1010.2,267.7,0.7,1.2,273.0,0.05,16.6,20.6,"07:00:16",1
"20/09/28","07:20",0.0,18.5,91.8,1010.4,299.4,0.8,1.7,242.2,0.07,17.2,20.8,"07:11:36",1
"20/09/28","07:30",0.0,18.5,91.0,1010.9,337.8,1.0,1.8,354.5,0.06,17.0,20.7,"07:28:08",1
"20/09/28","07:40",0.0,18.4,90.5,1010.7,356.6,0.8,1.9,342.3,0.06,16.9,20.7,"07:30:56",1
"20/09/28","07:50",0.0,19.5,90.0,1010.4,350.6,0.6,1.8,345.1,0.14,17.9,21.0,"07:46:24",1
"20/09/28","08:00",0.0,19.9,87.5,1010.0,100.4,0.7,1.7,111.0,0.17,17.8,21.0,"07:59:20",1
"20/09/28","08:10",0.0,20.6,83.9,1010.2,148.9,0.8,1.9,233.1,0.19,17.8,21.1,"08:09:44",1
"20/09/28","08:20",0.0,21.3,80.3,1009.7,153.0,0.8,1.7,126.9,0.23,17.8,21.4,"08:16:24",1
"20/09/28","08:30",0.0,21.2,76.9,1010.0,26.5,0.6,1.4,106.5,0.12,17.0,21.3,"08:29:12",1
"20/09/28","08:40",0.0,21.3,75.4,1009.5,135.8,1.1,3.6,201.8,0.24,16.8,21.4,"08:38:16",1
"20/09/28","08:50",0.0,21.4,75.5,1009.7,163.4,1.0,2.1,204.5,0.20,16.9,21.6,"08:40:16",1
"20/09/28","09:00",0.0,21.7,75.0,1009.3,240.3,0.5,2.1,224.4,0.17,17.1,21.6,"08:53:04",1
"20/09/28","09:10",0.0,21.7,74.8,1009.3,192.3,0.8,2.2,196.8,0.17,17.1,21.9,"09:02:40",1
"20/09/28","09:20",0.0,21.9,73.7,1009.0,228.2,0.6,2.1,113.1,0.18,17.0,21.7,"09:18:24",1
"20/09/28","09:30",0.0,21.9,73.6,1009.0,79.8,0.6,1.7,56.7,0.17,17.0,21.9,"09:25:20",1
"20/09/28","09:40",0.0,22.7,73.4,1008.8,197.6,0.7,1.6,218.0,0.30,17.7,22.1,"09:33:36",1
"20/09/28","09:50",0.0,22.9,72.5,1008.8,283.1,1.5,3.2,337.4,0.26,17.7,22.2,"09:48:08",1
"20/09/28","10:00",0.0,22.4,72.0,1008.8,337.2,2.0,4.1,307.6,0.17,17.1,22.2,"09:54:08",1
"20/09/28","10:10",0.0,22.4,72.3,1008.8,11.0,2.0,4.1,44.5,0.23,17.2,22.4,"10:04:48",1
"20/09/28","10:20",0.0,23.4,71.5,1008.6,353.2,2.1,4.7,326.0,0.50,18.0,22.6,"10:13:12",1
"20/09/28","10:30",0.0,23.6,68.2,1008.1,349.2,3.0,6.5,345.5,0.45,17.4,22.7,"10:23:36",1
"20/09/28","10:40",0.0,23.5,66.1,1008.1,347.9,2.7,5.5,351.2,0.31,16.8,22.9,"10:30:32",1
"20/09/28","10:50",0.0,23.3,66.7,1008.1,1.1,2.6,5.7,324.5,0.20,16.8,22.9,"10:40:24",1
"20/09/28","11:00",0.0,23.9,66.0,1007.6,0.7,2.3,4.4,15.5,0.49,17.2,23.1,"10:57:12",1
"20/09/28","11:10",0.0,24.2,64.7,1007.6,354.0,2.5,5.1,337.1,0.49,17.2,23.2,"11:02:08",1
"20/09/28","11:20",0.0,24.5,63.3,1007.6,4.6,2.1,4.7,49.2,0.46,17.1,23.3,"11:14:08",1
"20/09/28","11:30",0.0,24.2,65.0,1007.8,7.1,2.5,4.9,340.8,0.36,17.2,23.4,"11:20:56",1
"20/09/28","11:40",0.0,24.5,62.7,1007.4,13.4,2.6,6.4,46.5,0.56,17.0,23.6,"11:30:32",1
"20/09/28","11:50",0.0,24.9,63.2,1007.4,344.4,2.7,6.0,29.6,0.55,17.5,23.8,"11:40:24",1
"20/09/28","12:00",0.0,24.9,62.2,1007.1,343.9,2.7,6.0,341.8,0.57,17.2,23.9,"11:50:16",1
"20/09/28","12:10",0.0,24.9,62.0,1006.9,341.3,2.7,5.7,331.3,0.47,17.2,24.1,"12:01:36",1
"20/09/28","12:20",0.0,25.0,61.4,1007.1,337.6,2.7,6.8,339.9,0.52,17.1,24.3,"12:11:04",1
"20/09/28","12:30",0.0,25.0,60.9,1006.7,334.3,2.8,6.0,336.7,0.54,17.0,24.4,"12:20:48",1
"20/09/28","12:40",0.0,25.2,58.8,1006.4,0.9,2.6,6.4,21.5,0.55,16.6,24.6,"12:35:28",1
"20/09/28","12:50",0.0,25.1,59.9,1006.4,342.8,2.7,5.9,348.8,0.52,16.8,24.8,"12:48:48",1
"20/09/28","13:00",0.0,25.1,59.6,1006.4,348.3,3.0,7.3,345.8,0.52,16.7,25.0,"12:54:32",1
"20/09/28","13:10",0.0,25.0,60.0,1006.2,340.6,3.0,6.0,324.6,0.51,16.7,25.1,"13:08:56",1
"20/09/28","13:20",0.0,25.2,59.3,1006.0,335.4,3.0,6.0,343.2,0.50,16.7,25.2,"13:11:12",1
"20/09/28","13:30",0.0,24.9,59.6,1006.0,335.5,4.0,9.0,313.7,0.49,16.5,25.2,"13:21:36",1
"20/09/28","13:40",0.0,25.1,58.8,1005.7,349.4,3.1,7.3,346.6,0.47,16.5,25.4,"13:33:52",1
"20/09/28","13:50",0.0,25.1,58.3,1006.0,342.4,3.1,7.5,357.5,0.46,16.4,25.4,"13:44:00",1
"20/09/28","14:00",0.0,25.2,58.9,1005.7,335.5,2.8,5.2,356.7,0.44,16.6,25.5,"13:56:40",1
"20/09/28","14:10",0.0,25.4,55.6,1005.5,4.8,2.5,6.0,14.6,0.42,15.9,25.4,"14:07:28",1
"20/09/28","14:20",0.0,25.5,55.9,1005.2,2.1,2.6,5.6,344.7,0.41,16.1,25.7,"14:18:56",1
"20/09/28","14:30",0.0,25.0,57.6,1005.5,342.5,3.5,8.9,335.1,0.39,16.1,25.5,"14:27:52",1
"20/09/28","14:40",0.0,25.1,58.3,1005.5,345.8,3.0,6.0,337.5,0.37,16.4,25.5,"14:31:28",1
"20/09/28","14:50",0.0,25.3,57.0,1005.7,350.4,2.2,5.9,29.6,0.35,16.2,25.5,"14:49:44",1
"20/09/28","15:00",0.0,25.0,57.2,1005.0,7.1,3.1,6.5,24.1,0.32,16.0,25.3,"14:57:20",1
"20/09/28","15:10",0.0,24.9,57.4,1005.0,352.1,2.5,4.4,0.0,0.30,16.0,25.3,"15:07:20",1
"20/09/28","15:20",0.0,24.7,58.1,1005.2,340.7,2.7,5.7,325.8,0.28,16.0,25.3,"15:16:56",1
"20/09/28","15:30",0.0,24.6,57.4,1005.5,7.7,2.5,5.7,20.2,0.25,15.7,25.4,"15:27:36",1
"20/09/28","15:40",0.0,24.6,58.5,1006.0,348.9,2.5,4.9,336.1,0.23,16.0,25.1,"15:30:40",1
"20/09/28","15:50",0.0,24.6,58.9,1005.7,344.8,1.8,4.0,331.2,0.20,16.1,25.1,"15:48:40",1
"20/09/28","16:00",0.0,24.3,59.3,1005.7,5.1,2.6,5.4,358.1,0.17,15.9,25.0,"15:52:48",1
"20/09/28","16:10",0.0,24.1,59.7,1005.7,1.9,2.5,6.2,340.0,0.15,15.8,25.1,"16:03:36",1
"20/09/28","16:20",0.0,23.8,60.5,1005.7,345.5,2.5,6.4,327.5,0.12,15.7,24.9,"16:19:12",1
"20/09/28","16:30",0.0,23.4,61.8,1006.0,337.6,3.2,7.9,336.0,0.10,15.7,24.8,"16:25:28",1
"20/09/28","16:40",0.0,23.2,62.6,1005.7,339.9,2.7,5.6,351.9,0.07,15.7,24.6,"16:32:24",1
"20/09/28","16:50",0.0,23.0,63.3,1006.0,342.1,2.5,5.5,317.1,0.05,15.7,24.6,"16:44:56",1
"20/09/28","17:00",0.0,22.6,64.1,1006.4,339.1,2.6,5.4,332.7,0.03,15.5,24.3,"16:56:56",1
"20/09/28","17:10",0.0,22.3,65.2,1006.2,338.9,2.2,4.5,343.8,0.01,15.5,24.4,"17:06:40",1
"20/09/28","17:20",0.0,21.9,65.8,1006.4,343.2,2.6,6.6,346.2,0.00,15.3,24.4,"17:17:20",1
"20/09/28","17:30",0.0,21.5,66.8,1006.4,340.0,2.8,6.0,332.3,0.00,15.1,24.1,"17:23:44",1
"20/09/28","17:40",0.0,21.2,67.9,1006.7,334.2,2.6,4.8,305.1,0.00,15.1,23.9,"17:37:44",1
"20/09/28","17:50",0.0,21.0,68.9,1006.9,341.6,2.7,8.0,339.0,0.00,15.1,23.7,"17:43:44",1
"20/09/28","18:00",0.0,20.8,69.8,1006.9,333.5,2.8,5.8,318.9,0.00,15.1,23.8,"17:52:08",1
"20/09/28","18:10",0.0,20.6,70.8,1006.9,332.2,2.8,6.7,322.6,0.00,15.2,23.5,"18:06:16",1
"20/09/28","18:20",0.0,20.5,71.7,1007.4,336.2,2.8,5.1,311.3,0.00,15.3,23.3,"18:11:04",1
"20/09/28","18:30",0.0,20.4,72.6,1007.6,331.4,3.0,5.7,323.0,0.00,15.4,23.3,"18:28:48",1
"20/09/28","18:40",0.0,20.3,73.5,1007.4,329.6,2.8,6.3,342.5,0.00,15.5,23.1,"18:37:36",1
"20/09/28","18:50",0.0,20.3,74.0,1007.8,325.0,2.6,6.3,331.6,0.00,15.6,23.1,"18:43:04",1
"20/09/28","19:00",0.0,20.1,74.6,1007.8,311.9,1.8,3.9,342.5,0.00,15.5,23.0,"18:58:00",1
"20/09/28","19:10",0.0,20.0,75.1,1008.3,327.6,1.6,3.7,330.8,0.00,15.5,22.8,"19:00:24",1
"20/09/28","19:20",0.0,19.7,76.0,1007.8,334.5,1.3,3.9,23.6,0.00,15.4,22.8,"19:18:00",1
"20/09/28","19:30",0.0,19.7,76.9,1007.8,318.4,1.8,5.6,336.1,0.00,15.6,22.6,"19:29:04",1
"20/09/28","19:40",0.0,19.7,77.3,1008.3,317.7,2.1,4.9,336.7,0.00,15.7,22.5,"19:36:24",1
"20/09/28","19:50",0.0,19.6,77.4,1008.3,309.4,1.6,5.1,345.8,0.00,15.6,22.6,"19:45:12",1
"20/09/28","20:00",0.0,19.4,77.8,1008.3,298.1,1.0,2.1,313.7,0.00,15.5,22.5,"19:55:20",1
"20/09/28","20:10",0.0,19.3,78.4,1008.3,290.6,1.1,2.9,315.3,0.00,15.5,22.4,"20:05:28",1
"20/09/28","20:20",0.0,19.1,78.8,1008.3,272.0,1.0,2.0,227.3,0.00,15.4,22.4,"20:14:08",1
"20/09/28","20:30",0.0,18.7,79.3,1008.6,277.7,0.8,1.7,240.3,0.00,15.1,22.3,"20:21:44",1
"20/09/28","20:40",0.0,18.3,80.3,1008.6,282.0,1.0,1.8,328.3,0.00,14.9,22.3,"20:32:40",1
"20/09/28","20:50",0.0,18.2,81.3,1008.6,289.5,1.1,2.0,332.3,0.00,15.0,22.1,"20:44:00",1
"20/09/28","21:00",0.0,18.0,82.0,1008.8,276.7,1.1,1.8,323.2,0.00,14.9,22.1,"20:50:24",1
"20/09/28","21:10",0.0,17.9,82.7,1008.8,277.5,1.1,1.7,318.7,0.00,15.0,22.0,"21:07:44",1
"20/09/28","21:20",0.0,17.8,83.4,1008.6,282.0,1.1,1.6,308.0,0.00,15.0,21.9,"21:14:56",1
"20/09/28","21:30",0.0,17.7,84.1,1008.3,282.4,1.1,1.3,294.4,0.00,15.0,21.9,"21:21:28",1
"20/09/28","21:40",0.0,17.6,84.7,1008.8,239.8,0.6,1.3,247.9,0.00,15.0,21.9,"21:30:32",1
"20/09/28","21:50",0.0,17.6,85.0,1008.8,269.1,0.7,1.2,282.0,0.00,15.1,21.7,"21:49:20",1
"20/09/28","22:00",0.0,17.6,85.5,1008.6,291.7,1.3,1.8,310.6,0.00,15.2,21.6,"21:57:04",1
"20/09/28","22:10",0.0,17.4,85.8,1008.8,303.8,1.2,1.8,309.1,0.00,15.0,21.6,"22:00:56",1
"20/09/28","22:20",0.0,17.3,86.2,1008.8,300.9,1.1,1.9,313.1,0.00,15.0,21.5,"22:14:16",1
"20/09/28","22:30",0.0,17.1,86.7,1008.8,327.2,1.3,1.9,331.8,0.00,14.9,21.6,"22:24:00",1
"20/09/28","22:40",0.0,16.6,87.2,1008.8,317.9,1.3,1.9,316.4,0.00,14.5,21.3,"22:33:36",1
"20/09/28","22:50",0.0,16.6,87.8,1008.8,329.8,1.3,2.5,336.8,0.00,14.6,21.2,"22:44:32",1
"20/09/28","23:00",0.0,16.8,88.5,1008.8,329.1,1.6,2.4,331.9,0.00,14.9,21.2,"22:53:04",1
"20/09/28","23:10",0.0,17.0,88.9,1008.6,318.5,1.6,2.7,337.7,0.00,15.2,21.3,"23:00:48",1
"20/09/28","23:20",0.0,17.1,89.1,1008.6,324.8,1.7,3.5,309.7,0.00,15.3,21.0,"23:13:04",1
"20/09/28","23:30",0.0,17.0,89.3,1008.6,329.6,1.5,2.5,336.2,0.00,15.3,21.3,"23:25:52",1
"20/09/28","23:40",0.0,16.9,89.5,1008.6,329.4,1.8,3.3,317.5,0.00,15.2,21.0,"23:39:52",1
"20/09/28","23:50",0.0,17.1,89.7,1008.3,327.0,2.2,4.8,329.9,0.00,15.4,21.0,"23:44:56",1
"20/09/28","24:00",0.0,17.1,89.6,1008.3,330.0,1.8,4.9,341.3,0.00,15.4,21.0,"23:56:48",1
